Flight Track Log - Related Links

Times and Time Zones

All times are in EST time to prevent confusion due to time zone crossing. See the LOG6844 flight status page for this flight to view local times or setup timezone preferences in your user account.

Time Position Orientation Groundspeed Altitude Reporting Facility
EST Latitude Longitude Course Direction KTS MPH feet Rate Location/Type
Thu 05:03:33 AM 55.4673 -5.6502 63° Northeast 1 1 3,300  Level FlightAware UK
Thu 05:03:51 AM 55.4719 -5.6345 63° Northeast 1 1 3,600 1,000 Climbing FlightAware UK
Thu 05:04:09 AM 55.4790 -5.6210 47° Northeast 1 1 3,900 1,000 Climbing FlightAware UK
Thu 05:04:27 AM 55.4849 -5.6094 48° Northeast 1 1 4,200 1,167 Climbing FlightAware UK
Thu 05:04:45 AM 55.4911 -5.5965 50° Northeast 1 1 4,600 1,000 Climbing FlightAware UK
Thu 05:05:03 AM 55.4977 -5.5833 49° Northeast 1 1 4,800 667 Climbing FlightAware UK
Thu 05:05:21 AM 55.5043 -5.5666 55° Northeast 1 1 5,000 667 Climbing FlightAware UK
Thu 05:05:39 AM 55.5107 -5.5525 51° Northeast 1 1 5,200 500 Climbing FlightAware UK
Thu 05:05:57 AM 55.5186 -5.5389 44° Northeast 1 1 5,300 143 Climbing FlightAware UK
Thu 05:06:21 AM 55.5302 -5.5186 45° Northeast 1 1 5,300 -143 Level FlightAware UK
Thu 05:06:39 AM 55.5400 -5.5014 45° Northeast 1 1 5,200  Descending FlightAware UK
Thu 05:06:57 AM 55.5486 -5.4833 50° Northeast 1 1 5,300  Climbing FlightAware UK
Thu 05:07:15 AM 55.5563 -5.4641 55° Northeast 1 1 5,200 -167 Descending FlightAware UK
Thu 05:07:33 AM 55.5634 -5.4445 57° Northeast 1 1 5,200  Level FlightAware UK
Thu 05:07:51 AM 55.5713 -5.4262 53° Northeast 1 1 5,200  Level FlightAware UK
Thu 05:08:09 AM 55.5803 -5.4097 46° Northeast 1 1 5,200  Level FlightAware UK
Thu 05:08:27 AM 55.5893 -5.3939 45° Northeast 1 1 5,200 -167 Level FlightAware UK
Thu 05:08:45 AM 55.5987 -5.3790 42° Northeast 1 1 5,100  Descending FlightAware UK
Thu 05:09:03 AM 55.6098 -5.3684 28° Northeast 1 1 5,200 111 Climbing FlightAware UK
Thu 05:09:39 AM 55.6292 -5.3418 38° Northeast 1 1 5,200  Level FlightAware UK
Thu 05:09:57 AM 55.6384 -5.3258 45° Northeast 1 1 5,200  Level FlightAware UK
Thu 05:10:15 AM 55.6479 -5.3105 42° Northeast 1 1 5,200  Level FlightAware UK
Thu 05:10:33 AM 55.6570 -5.2948 44° Northeast 1 1 5,200  Level FlightAware UK
Thu 05:10:51 AM 55.6666 -5.2800 41° Northeast 1 1 5,200  Level FlightAware UK
Thu 05:11:27 AM 55.6846 -5.2487 44° Northeast 1 1 5,200  Level FlightAware UK
Thu 05:11:45 AM 55.6925 -5.2310 52° Northeast 1 1 5,200 167 Level FlightAware UK
Thu 05:12:03 AM 55.7010 -5.2143 48° Northeast 1 1 5,300  Climbing FlightAware UK
Thu 05:12:21 AM 55.7099 -5.1974 47° Northeast 1 1 5,200 -167 Descending FlightAware UK
Thu 05:12:39 AM 55.7181 -5.1796 50° Northeast 1 1 5,200  Level FlightAware UK
Thu 05:13:03 AM 55.7289 -5.1551 52° Northeast 1 1 5,200  Level FlightAware UK
Thu 05:13:21 AM 55.7375 -5.1373 49° Northeast 1 1 5,200  Level FlightAware UK
Thu 05:14:09 AM 55.7606 -5.0915 48° Northeast 1 1 5,200  Level FlightAware UK
Thu 05:14:27 AM 55.7684 -5.0734 53° Northeast 1 1 5,200  Level FlightAware UK
Thu 05:14:45 AM 55.7736 -5.0510 67° East 1 1 5,200 167 Level FlightAware UK
Thu 05:15:03 AM 55.7797 -5.0297 63° Northeast 1 1 5,300 -167 Climbing FlightAware UK
Thu 05:15:21 AM 55.7856 -5.0085 63° Northeast 1 1 5,100  Descending FlightAware UK
Thu 05:15:39 AM 55.7917 -4.9872 63° Northeast 1 1 5,300 167 Climbing FlightAware UK
Thu 05:15:57 AM 55.7978 -4.9658 63° Northeast 1 1 5,200 -167 Descending FlightAware UK
Thu 05:16:15 AM 55.8039 -4.9442 63° Northeast 1 1 5,200  Level FlightAware UK
Thu 05:16:33 AM 55.8098 -4.9227 64° Northeast 1 1 5,200 -333 Level FlightAware UK
Thu 05:16:51 AM 55.8161 -4.9012 62° Northeast 1 1 5,000 -667 Descending FlightAware UK
Thu 05:17:09 AM 55.8226 -4.8791 63° Northeast 1 1 4,800 -500 Descending FlightAware UK
Thu 05:17:27 AM 55.8294 -4.8568 61° Northeast 1 1 4,700 -333 Descending FlightAware UK
Thu 05:17:45 AM 55.8362 -4.8348 61° Northeast 1 1 4,600 -500 Descending FlightAware UK
Thu 05:18:03 AM 55.8424 -4.8121 64° Northeast 1 1 4,400 -667 Descending FlightAware UK
Thu 05:18:21 AM 55.8472 -4.7884 70° East 1 1 4,200 -667 Descending FlightAware UK
Thu 05:18:39 AM 55.8521 -4.7638 71° East 1 1 4,000 -833 Descending FlightAware UK
Thu 05:18:57 AM 55.8549 -4.7377 79° East 1 1 3,700 -857 Descending FlightAware UK
Thu 05:19:21 AM 55.8584 -4.7023 80° East 1 1 3,400 -714 Descending FlightAware UK
Thu 05:19:39 AM 55.8616 -4.6760 78° East 1 1 3,200 -500 Descending FlightAware UK
Thu 05:19:57 AM 55.8645 -4.6496 79° East 1 1 3,100 -500 Descending FlightAware UK
Thu 05:20:15 AM 55.8677 -4.6241 77° East 1 1 2,900 -667 Descending FlightAware UK
Thu 05:20:33 AM 55.8708 -4.5991 77° East 1 1 2,700 -857 Descending FlightAware UK
Thu 05:20:57 AM 55.8757 -4.5661 75° East 1 1 2,300 -857 Descending FlightAware UK
Thu 05:21:15 AM 55.8801 -4.5412 72° East 1 1 2,100 -667 Descending FlightAware UK
Thu 05:21:33 AM 55.8844 -4.5168 73° East 1 1 1,900 -667 Descending FlightAware UK
Thu 05:21:51 AM 55.8888 -4.4924 72° East 1 1 1,700 -857 Descending FlightAware UK
Thu 05:22:15 AM 55.8947 -4.4651 69° East 1 1 1,300 -714 Descending FlightAware UK
Thu 05:22:33 AM 55.8987 -4.4482 67° East 1 1 1,200 -333 Descending FlightAware UK
Thu 05:22:51 AM 55.9022 -4.4351 64° Northeast 1 1 1,100 -667 Descending FlightAware UK
Thu 05:23:09 AM 55.9002 -4.4207 104° East 1 1 800 -500 Descending FlightAware UK
Thu 05:23:27 AM 55.8953 -4.4103 131° Southeast 1 1 800 -333 Level FlightAware UK
Thu 05:23:45 AM 55.8889 -4.4068 163° South 1 1 600 -571 Descending FlightAware UK
Thu 05:24:09 AM 55.8819 -4.4144 211° Southwest 1 1 400 -286 Descending FlightAware UK
Thu 05:24:27 AM 55.8776 -4.4215 223° Southwest 1 1 400  Level FlightAware UK
Thu 05:26:00 AM 55.8719 -4.4331 229° Southwest  Level Estimated

Login

Don't have an account? Register now (free) for customized features, flight alerts, and more!